Regional Weather Roundup
Issued by NWS Wakefield, VA

Home | Current Version | Previous Version | Graphics & Text | Print | Product List | Glossary On
Versions: 1 2 3 4 5 6 7 8 9 10 11 12 13 14 15 16 17 18 19 20 21 22 23 24 25 26 27 28 29 30 31 32 33 34 35 36 37 38 39 40 41 42 43 44 45 46 47 48 49 50
000
ASUS41 KAKQ 280810
RWRAKQ

REGIONAL WEATHER ROUNDUP
NATIONAL WEATHER SERVICE WAKEFIELD VA
300 AM EST WED JAN 28 2015

Note: "fair" indicates few or no clouds below 12,000 feet with no
significant weather and/or obstructions to visibility. * = Denotes
station may not report precipitation (e.g., rain,snow,etc.),
thunder or fog.

VAZ042-051-052>054-056-280900-
NORTHERN VIRGINIA

CITY           SKY/WX    TMP DP  RH WIND       PRES   REMARKS
WASH NATIONAL  PTCLDY    27  11  51 NW20G28   30.07R WCI  13
DULLES         CLEAR     23  11  60 NW17G25   30.06R WCI   9
FORT BELVOIR   CLEAR     25  11  54 NW15G23   30.07R WCI  13
QUANTICO       CLEAR     26  11  52 N14G28    30.08R WCI  14
FREDERICKSBRG* CLEAR     28  14  56 N10G16    30.06R WCI  19
STAFFORD*      CLEAR     25  12  57 NW15G26   30.10R WCI  13
WARRENTON      CLEAR     26  17  68 NW12      30.06R WCI  16
CULPEPER*      FAIR      27  12  54 N9        30.06S
MANASSAS*      CLEAR     25  16  68 NW16      30.07R WCI  12
LEESBURG*      CLEAR     25  16  68 NW14G29   30.08R WCI  13
WINCHESTER     CLEAR     23  10  58 NW17      30.08S WCI   9
FRONT ROYAL*   FAIR      23  12  63 NW5       30.08R
LURAY*         FAIR      27  14  59 NW5       30.08R
$$

VAZ048-049-060>072-079>083-280900-
CENTRAL AND SOUTH CENTRAL VIRGINIA

CITY           SKY/WX    TMP DP  RH WIND       PRES   REMARKS
RICHMOND       MOCLDY    30  14  51 N14G21    30.04R WCI  19
CHESTERFIELD*  CLOUDY    30   9  40 N12       30.04R WCI  21
PETERSBURG*    CLEAR     31  21  68 N7        30.04R
HANOVER        CLOUDY    28  11  48 N9G22     30.06R
TAPPAHANNOCK*  CLEAR     29  12  49 NW9       30.04R
QUINTON*       CLOUDY    28  14  54 N6G16     30.03R
CHARLOTTSVILLE CLEAR     28  12  51 NW10G18   30.04R WCI  19
GORDONSVILLE*  FAIR      27  15  61 CALM      30.05R
ORANGE*        CLEAR     28  12  50 NW3       30.06R
LOUISA*        PTCLDY    25  18  74 CALM      30.03R
BUMPASS*       CLOUDY    28  15  56 N7        30.04R
FARMVILLE*     PTCLDY    28  17  61 CALM      30.04R
CREWE*         FAIR      28  16  61 NW5       30.04R
FORT PICKETT*  FAIR      27  18  69 NW6       30.03R
CHASE CITY*    CLOUDY    30  18  61 CALM      30.04R
CLARKSVILLE*   CLOUDY    28  14  54 NW6       30.04R
SOUTH HILL*    CLOUDY    29  16  57 NW3       30.09R
LAWRENCEVILLE* CLOUDY    30  19  62 NW3       30.03R
EMPORIA*       CLEAR     30  21  69 W3        30.05R
$$

VAZ088>098-280900-
SOUTHEAST VIRGINIA

CITY           SKY/WX    TMP DP  RH WIND       PRES   REMARKS
NORFOLK        CLOUDY    32  16  51 NW12G18   29.99R WCI  23
VIRGINIA BEACH CLOUDY    32  19  58 N17G24    29.98R WCI  21
NORFOLK NAVAL  MOCLDY    33  15  47 NW18G26   30.02R WCI  22
WEST POINT*    CLEAR     31  15  52 NW7       30.05R
SALUDA*        FAIR      29  16  57 N14G22    30.01R WCI  18
NEWPORT NEWS   MOCLDY    32  16  51 N10G21    30.01R WCI  24
LANGLEY AFB    PTCLDY    29  16  56 N13       30.00R WCI  19
FORT EUSTIS    MOCLDY    30  19  61 N7G21     30.00R
WILLIAMSBURG*    N/A     30  19  64 N9        30.03R
HR EXEC AP*    CLOUDY    30  18  59 N8        30.03R
FRANKLIN*      CLOUDY    31  16  54 N10G17    30.03R WCI  22
WAKEFIELD      PTCLDY    30  15  53 N7        30.03R
$$

VAZ020-022-025-037-045-280900-
WEST CENTRAL AND SOUTHWEST VIRGINIA

CITY           SKY/WX    TMP DP  RH WIND       PRES   REMARKS
STAUNTON*      CLEAR     18  14  82 CALM      30.08R
WAYNESBORO*    FAIR      19  12  74 NW3       30.05R
HOT SPRINGS VA CLEAR     12   9  87 W17       29.89R WCI  -5
LYNCHBURG      MOCLDY    26  12  55 NW10G17   30.05R WCI  16
DANVILLE       MOCLDY    28  13  53 N8        30.07R
SOUTH BOSTON*  CLOUDY    28  13  52 NW6       30.07R
MARTINSVILLE   CLEAR     26  15  61 N8        30.08R
ROANOKE        PTCLDY    22  11  62 NW7       30.11R
BLACKSBURG     PTCLDY    19  11  72 NW9       30.08R
DUBLIN*        CLOUDY    22  16  76 NW6       30.08R
MARION*        FLURRIES  20  12  71 W16       30.09R WCI   6
HILLSVILLE*    PTCLDY    19  13  79 NW21      30.00R WCI   2
RICHLANDS*     FLURRIES  17  11  76 NW6       30.09R
WISE*          CLEAR     18  12  79 NW3       30.11R
ABINGDON*      CLEAR     22  14  71 CALM      30.13R
$$

MDZ021>025-VAZ099-100-280900-
SOUTHERN MARYLAND AND THE DELMARVA PENINSULA

CITY           SKY/WX    TMP DP  RH WIND       PRES   REMARKS
PATUXENT RIVER CLEAR     27  13  55 NW16G26   30.02R WCI  15
BAY BRIDGE APT   N/A     28  10  47 NW15G24   30.04R WCI  17
LEONARDTOWN    FAIR      28  14  54 NW10G17   30.04R WCI  19
DOVER          CLEAR     20   9  62 NW13      30.00R WCI   7
GEORGETOWN     CLEAR     23   9  55 NW9       29.99R
EASTON         CLEAR     27  14  58 N16       30.05R WCI  14
CAMBRIDGE      CLEAR     30  14  51 NW17G26   30.00R WCI  18
SALISBURY      CLEAR     27  11  51 N14G30    29.99R WCI  16
OCEAN CITY     CLEAR     25  11  55 N24G31    29.97R WCI   9
WALLOPS ISLAND CLEAR     28  15  58 N17G26    29.97R WCI  16
ACCOMACK*      CLEAR     30  18  59 NW17G30   29.97R WCI  18
$$

NCZ012>017-030>032-280900-
NORTH CENTRAL AND EASTERN NORTH CAROLINA

CITY           SKY/WX    TMP DP  RH WIND       PRES   REMARKS
ROANOKE RAPIDS CLOUDY    32  19  59 NW6       30.04R
RALEIGH        PTCLDY    28  11  48 NW6       30.06R
ELIZABETH CITY PTCLDY    31  20  63 NW14G20   30.00R WCI  21
AHOSKIE*       PTCLDY    30  22  70 NW3       30.03R
EDENTON*       CLOUDY    33  25  73 N14       30.00R WCI  23
CURRITUCK*     PTCLDY    31  20  63 NW3       29.99R
KILL DEVIL HLS CLOUDY    33  24  69 NW8       29.96R
MANTEO         CLOUDY    34  21  60 N13       29.98R WCI  25
CAPE HATTERAS  CLOUDY    35  27  72 VRB6      29.96R
TARBORO*       CLOUDY    32  20  62 NW6       30.05R
GOLDSBORO      CLEAR     30  22  74 NW8       30.03
WASHINGTON     CLOUDY    32  24  71 NW8       30.02R
GREENVILLE     PTCLDY    32  23  69 NW5       30.05R
NEW BERN       CLEAR     32  25  75 NW7       30.02R
WILMINGTON     CLEAR     30  20  66 NW7       30.03R
$$

VAZ048-280900-
ELSEWHERE

CITY           SKY/WX    TMP DP  RH WIND       PRES   REMARKS
HARRISBURG PA  PTCLDY    18   3  52 NW13      30.05R WCI   5
BALTIMORE      CLEAR     23   8  52 NW14G23   30.03R WCI  11
ANNAPOLIS      CLEAR     27  12  53 NW16      30.03R WCI  15
ANDREWS AFB    CLEAR     24  11  57 NW16      30.03R WCI  11
PHILADELPHIA   PTCLDY    20   5  52 NW14      30.00R WCI   7
HENDERSON NC   CLOUDY    28  13  53 CALM      30.04R
GREENSBORO     CLEAR     26  13  57 NW6       30.04R
ROCKY MOUNT    CLOUDY    29  17  61 NW7       30.05R
$$

VAZ100-280900-
MARINE

STATION/POSITION TIME  TEMP    WIND        PRES    WAVE   SWELL
                       AIR SEA DIR/SP/G            HT/PER HT/PER
                 (UTC) (F)     (DEG/KT/KT) (MB)    (FT/S) (FT/S)
BRANDYWINE LGT   0800   24 37  350/ 24/ 30 1014.5R
CAPE MAY NJ      0800   24 37   30/  2/  5 1014.2R
LEWES DE         0800   25 35  330/ 24/ 28 1015.0R
15NM E FENWICK I 0800   28 41              1012.7R   8/ 6
OCEAN-CITY-INLET 0800   27 38  350/ 20/ 27 1013.9R
WACHAPREAGUE VA  0800   30 38  320/  6/ 16 1014.4R
THOMAS POINT MD  0800   27 36  330/ 21/ 24 1017.6R
GOOSES REEF MD   0800   29     VRB 23/ 27  1015.3R
COVE POINT MD    0800   27     350/ 25/ 29 1015.9R
SOLOMONS ISLAND  0800      38                N/A
BISHOPS HEAD MD  0800   28 34  330/ 11/ 16 1015.2R
PINEY POINT MD   0800          350/ 23/ 25   N/A
POTOMAC MD       0800   29     350/ 16/ 21 1015.5R
CAMBRIDGE MD     0800   29 36  330/ 17/ 23 1015.7R
LEWISETTA VA     0800   29 37  340/ 15/ 21 1016.5R
RAPPAHANNOCK LGT 0800          330/ 29/ 33 1015.5R
STINGRAY PT      0800   31     340/ 17/ 23 1016.1R
YORK RVR RNG VA  0800   31     350/ 24/ 28 1014.8R
YORKTOWN VA      0800   31 40  330/ 15/ 18 1015.9R
JAMESTOWN VA     0800   29     360/ 14/ 19   N/A
DOMINION TERM VA 0800   32     350/ 11/ 13 1015.9R
KIPTOPEKE VA     0800      44  340/ 23/ 27   N/A
CHES BAY BRIDGE  0800   32 41  320/ 22/ 26 1014.9R
CAPE HENRY VA    0800   32     320/ 23/ 26 1013.8R
CHESAPEAKE LGHT  0700   33     340/ 26/ 28 1014.2R
WILLOUBY STN VA  0800   31     340/ 19/ 25 1016.0R
S CRANEY ISL VA  0800          340/ 16/ 21 1015.6R
CAPE HENRY BUOY  0800      44                N/A     6/12   2/12
1ST LANDING BUOY 0800   33     330/ 21/ 27 1014.6R
CAPE CHARLES BUO 0800      42                N/A     5/13   3/13
OFFSHORE WE BUOY 0800      45                N/A     8/11   5/11
64NM E OF VA BCH 0800   37 52  340/ 21/ 27 1012.6R  11/12   8/12
DUCK PIER NC     0800   34 42  330/ 16/ 18 1013.9R
44100 DUCK FRF   0800      45                N/A    10/13   7/13
44056 DUCK FRF   0800      43                N/A     7/13   5/13
OREGON INLET NC  0800   34 43  320/ 13/ 16 1014.5R
HATTERAS NC      0800   37 47  340/ 18/ 21 1014.7R



USA.gov is the U.S. government's official web portal to all federal, state and local government web resources and services.